Notices

What's New in latest Release from April 7th, 2021:

- Updated Glossary, including Speed of Maximum Gust, and Total Hourly Precipitation

- Updated national and regional climate services offices contacts and prices information

- Addition of station inventory lists for 1981-2010, 1971-2000, and 1961-1990 Normals.

If you haven't already, please take our survey and provide feedback about our website: https://eccc.sondage-survey.ca/f/LanguageSelection.aspx?s=442ca660-fcf1-47c0-95a9-59707d6fd709

Hourly Data Report for November 16, 2004

SHERBROOKE A
QUEBEC

45°26'00.000" N
71°41'00.000" W
241.40 m
7028124
71610
YSC

Download Data

Hourly Data (November 2004)
Hourly Data Report for November 16, 2004
TIME
LST
Temp Definition
°C
Dew Point Definition
°C
Rel Hum Definition
%
Precip. Amount Definition
mm

Wind Dir Definition
10's deg

Wind Spd Definition
km/h
Visibility Definition
km
Stn Press Definition
kPa
Hmdx Definition


Wind Chill Definition


Weather Definition


00:00 -3.8 -5.2 90   14 6 12.9 99.81   -6  
01:00 -3.6 -5.1 89     0 9.7 99.80      
02:00 -4.0 -5.5 89     0 11.3 99.79      
03:00 -3.4 -4.8 90   9 4 11.3 99.76   -5  
04:00 -3.3 -4.7 90   10 4 11.3 99.76   -5  
05:00 -2.8 -4.3 89   9 6 11.3 99.81   -5  
06:00 -2.8 -4.3 89   10 6 9.7 99.83   -5  
07:00 -2.8 -4.0 91   8 6 8.0 99.87   -5  
08:00 -1.9 -3.1 91   9 6 9.7 99.87   -4 Fog
09:00 0.2 -1.4 89   5 7 24.1 99.86     Mostly Cloudy
10:00 1.7 -1.4 80   12 4 16.1 99.85     Mostly Cloudy
11:00 3.1 -1.2 73   7 4 19.3 99.83     Mostly Cloudy
12:00 3.9 -1.4 68   27 6 19.3 99.77     Mostly Cloudy
13:00 4.2 -1.4 67   28 6 19.3 99.71     Mostly Cloudy
14:00 4.7 -1.4 65   30 9 19.3 99.70     Mostly Cloudy
15:00 4.2 -1.8 65   30 4 24.1 99.68     Mostly Cloudy
16:00 2.8 -2.3 69   2 4 24.1 99.69     Mostly Cloudy
17:00 2.0 -2.2 74   8 4 24.1 99.70     Mostly Cloudy
18:00 1.6 -3.0 71   6 6 15.0 99.71      
19:00 -0.9 -3.7 81     0 15.0 99.71      
20:00 0.4 -3.1 77   8 7 15.0 99.73      
21:00 -0.3 -3.8 77   7 9 15.0 99.71   -3  
22:00 -1.1 -4.1 80   6 7 15.0 99.70   -4  
23:00 -2.0 -4.5 83   7 7 15.0 99.69   -5  

Notes on Data Quality.

Legend

  • E = Estimated
  • M = Missing
  • NA = Not Available*
  • [empty] = Indicates an unobserved value
Date modified: